Location: Marcé
(47.5801°N, 0.3280°W)
Time: 04:16:40
(UTC+01:00)

Explorer 11/Cluster Stage 4 - Pass Details

Date: 09 December 2021
Orbit: 467 x 1255 km, 28.8° (Epoch: 26 January)

Event Time Altitude Azimuth Distance (km) Brightness Sun altitude
Rises 03:23:24 0° 233° (SW) 3,251 - -51.3°
Reaches altitude 10° 03:27:23 10° 204° (SSW) 2,519 - -50.7°
Maximum altitude 03:29:46 12° 181° (S) 2,457 - -50.3°
Drops below altitude 10° 03:32:20 10° 158° (SSE) 2,745 - -49.9°
Exits shadow 03:36:47 - 134° (SE) 3,788 10.3 -49.2°
Sets 03:37:09 0° 132° (SE) 3,889 10.4 -49.1°
